• In United Kingdom
  • List of Countries
  • For 7 days
  • Water Temperature
  • Satellite Maps
  • Weather Map
  • Weather Widgets
  • user-avatar
    Login

    Hourly Weather Tirana

    Today, 20 August, Sunday

    Time Temperature Precipitation Wind Pressure Humidity
    00:00 +26°C° 0 mm 2 mps 753 mmHg 47%
    01:00 +26°C° 0 mm 2 mps 752 mmHg 46%
    02:00 +26°C° 0 mm 2 mps 752 mmHg 46%
    03:00 +26°C° 0 mm 2 mps 752 mmHg 46%
    04:00 +25°C° 0 mm 3 mps 752 mmHg 46%
    05:00 +27°C° 0 mm 2 mps 752 mmHg 43%
    06:00 +29°C° 0 mm 2 mps 752 mmHg 39%
    07:00 +30°C° 0 mm 2 mps 752 mmHg 36%
    08:00 +32°C° 0 mm 2 mps 752 mmHg 31%
    09:00 +35°C° 0 mm 3 mps 752 mmHg 26%
    10:00 +37°C° 0 mm 3 mps 751 mmHg 21%
    11:00 +37°C° 0 mm 3 mps 751 mmHg 21%
    12:00 +38°C° 0 mm 4 mps 751 mmHg 20%
    13:00 +39°C° 0 mm 5 mps 751 mmHg 20%
    14:00 +38°C° 0 mm 4 mps 750 mmHg 23%
    15:00 +37°C° 0 mm 4 mps 750 mmHg 26%
    16:00 +36°C° 0 mm 4 mps 750 mmHg 29%
    17:00 +33°C° 0 mm 3 mps 750 mmHg 37%
    18:00 +30°C° 0 mm 2 mps 750 mmHg 46%
    19:00 +27°C° 0 mm 2 mps 750 mmHg 55%
    20:00 +27°C° 0 mm 2 mps 751 mmHg 57%
    21:00 +26°C° 0 mm 1 mps 751 mmHg 58%
    22:00 +26°C° 0 mm 1 mps 751 mmHg 60%
    23:00 +25°C° 0.5 mm 2 mps 751 mmHg 64%

    Tomorrow, 21 August, Monday

    Time Temperature Precipitation Wind Pressure Humidity
    00:00 +25°C° 0.5 mm 2 mps 751 mmHg 67%
    01:00 +24°C° 0.5 mm 2 mps 751 mmHg 71%
    02:00 +24°C° 0.7 mm 2 mps 751 mmHg 73%
    03:00 +22°C° 0.7 mm 3 mps 751 mmHg 76%
    04:00 +22°C° 0.7 mm 3 mps 751 mmHg 78%
    05:00 +24°C° 0.1 mm 3 mps 751 mmHg 75%
    06:00 +24°C° 0.1 mm 3 mps 751 mmHg 73%
    07:00 +25°C° 0.1 mm 3 mps 751 mmHg 71%
    08:00 +27°C° 0 mm 3 mps 751 mmHg 61%
    09:00 +30°C° 0 mm 2 mps 752 mmHg 52%
    10:00 +32°C° 0 mm 2 mps 752 mmHg 42%
    11:00 +33°C° 0.1 mm 3 mps 751 mmHg 40%
    12:00 +34°C° 0.1 mm 4 mps 751 mmHg 38%
    13:00 +34°C° 0.1 mm 5 mps 751 mmHg 36%
    14:00 +34°C° 0 mm 6 mps 751 mmHg 37%
    15:00 +34°C° 0 mm 6 mps 751 mmHg 37%
    16:00 +33°C° 0 mm 7 mps 751 mmHg 38%
    17:00 +30°C° 0 mm 7 mps 751 mmHg 43%
    18:00 +28°C° 0 mm 6 mps 751 mmHg 49%
    19:00 +26°C° 0 mm 6 mps 751 mmHg 55%
    20:00 +24°C° 0 mm 6 mps 752 mmHg 58%
    21:00 +23°C° 0 mm 5 mps 752 mmHg 61%
    22:00 +22°C° 0 mm 5 mps 752 mmHg 64%
    23:00 +22°C° 0 mm 5 mps 752 mmHg 64%

    Day after tomorrow, 22 August, Tuesday

    Time Temperature Precipitation Wind Pressure Humidity
    00:00 +21°C° 0 mm 5 mps 752 mmHg 65%
    01:00 +21°C° 0 mm 4 mps 753 mmHg 65%
    02:00 +20°C° 0 mm 5 mps 753 mmHg 65%
    03:00 +20°C° 0 mm 5 mps 753 mmHg 65%
    04:00 +20°C° 0 mm 5 mps 753 mmHg 65%
    05:00 +21°C° 0 mm 5 mps 753 mmHg 59%
    06:00 +22°C° 0 mm 5 mps 753 mmHg 54%
    07:00 +23°C° 0 mm 5 mps 754 mmHg 49%
    08:00 +26°C° 0 mm 5 mps 754 mmHg 42%
    09:00 +28°C° 0 mm 5 mps 754 mmHg 36%
    10:00 +30°C° 0 mm 5 mps 754 mmHg 30%
    11:00 +32°C° 0 mm 5 mps 753 mmHg 27%
    12:00 +33°C° 0 mm 5 mps 753 mmHg 24%
    13:00 +34°C° 0 mm 5 mps 753 mmHg 21%
    14:00 +34°C° 0 mm 6 mps 753 mmHg 21%
    15:00 +34°C° 0 mm 7 mps 752 mmHg 21%
    16:00 +34°C° 0 mm 8 mps 752 mmHg 21%
    17:00 +30°C° 0 mm 7 mps 752 mmHg 28%
    18:00 +27°C° 0 mm 6 mps 753 mmHg 35%
    19:00 +23°C° 0 mm 6 mps 753 mmHg 42%
    20:00 +23°C° 0 mm 5 mps 753 mmHg 42%
    21:00 +22°C° 0 mm 5 mps 754 mmHg 42%
    22:00 +21°C° 0 mm 4 mps 754 mmHg 42%
    23:00 +21°C° 0 mm 4 mps 754 mmHg 42%

    23 August, Wednesday

    Time Temperature Precipitation Wind Pressure Humidity
    00:00 +20°C° 0 mm 4 mps 754 mmHg 43%
    01:00 +20°C° 0 mm 3 mps 754 mmHg 43%
    02:00 +20°C° 0 mm 3 mps 754 mmHg 44%
    03:00 +19°C° 0 mm 3 mps 754 mmHg 45%
    04:00 +19°C° 0 mm 3 mps 754 mmHg 46%
    05:00 +21°C° 0 mm 3 mps 754 mmHg 43%
    06:00 +22°C° 0 mm 3 mps 754 mmHg 41%
    07:00 +25°C° 0 mm 2 mps 755 mmHg 38%
    08:00 +28°C° 0 mm 2 mps 755 mmHg 33%
    09:00 +30°C° 0 mm 2 mps 755 mmHg 27%
    10:00 +33°C° 0 mm 1 mps 755 mmHg 22%
    11:00 +34°C° 0 mm 2 mps 755 mmHg 21%
    12:00 +35°C° 0 mm 3 mps 754 mmHg 19%
    13:00 +35°C° 0 mm 4 mps 754 mmHg 18%
    14:00 +35°C° 0 mm 5 mps 754 mmHg 20%
    15:00 +34°C° 0 mm 5 mps 754 mmHg 21%
    16:00 +34°C° 0 mm 5 mps 754 mmHg 23%
    17:00 +30°C° 0 mm 4 mps 754 mmHg 30%
    18:00 +27°C° 0 mm 3 mps 754 mmHg 37%
    19:00 +24°C° 0 mm 3 mps 755 mmHg 44%
    20:00 +24°C° 0 mm 2 mps 755 mmHg 43%
    21:00 +23°C° 0 mm 2 mps 755 mmHg 42%
    22:00 +23°C° 0 mm 2 mps 756 mmHg 42%
    23:00 +23°C° 0 mm 2 mps 756 mmHg 41%

    24 August, Thursday

    Time Temperature Precipitation Wind Pressure Humidity
    00:00 +21°C° 0 mm 2 mps 756 mmHg 39%
    01:00 +21°C° 0 mm 2 mps 756 mmHg 38%
    02:00 +21°C° 0 mm 2 mps 756 mmHg 38%
    03:00 +21°C° 0 mm 2 mps 756 mmHg 38%
    04:00 +20°C° 0 mm 2 mps 756 mmHg 38%
    05:00 +23°C° 0 mm 2 mps 756 mmHg 36%
    06:00 +25°C° 0 mm 2 mps 756 mmHg 33%
    07:00 +26°C° 0 mm 2 mps 756 mmHg 31%
    08:00 +29°C° 0 mm 2 mps 756 mmHg 27%
    09:00 +32°C° 0 mm 2 mps 756 mmHg 23%
    10:00 +35°C° 0 mm 2 mps 756 mmHg 19%
    11:00 +36°C° 0 mm 3 mps 756 mmHg 18%
    12:00 +37°C° 0 mm 3 mps 756 mmHg 18%
    13:00 +37°C° 0 mm 4 mps 755 mmHg 17%
    14:00 +37°C° 0 mm 5 mps 755 mmHg 18%
    15:00 +36°C° 0 mm 5 mps 755 mmHg 19%
    16:00 +36°C° 0 mm 5 mps 755 mmHg 20%
    17:00 +33°C° 0 mm 4 mps 755 mmHg 27%
    18:00 +29°C° 0 mm 4 mps 755 mmHg 33%
    19:00 +26°C° 0 mm 3 mps 755 mmHg 40%
    20:00 +26°C° 0 mm 2 mps 756 mmHg 38%
    21:00 +25°C° 0 mm 2 mps 756 mmHg 37%
    22:00 +25°C° 0 mm 2 mps 756 mmHg 35%
    23:00 +25°C° 0 mm 2 mps 756 mmHg 34%

    25 August, Friday

    Time Temperature Precipitation Wind Pressure Humidity
    00:00 +24°C° 0 mm 2 mps 756 mmHg 33%
    01:00 +24°C° 0 mm 2 mps 756 mmHg 31%
    02:00 +24°C° 0 mm 2 mps 756 mmHg 31%
    03:00 +23°C° 0 mm 2 mps 756 mmHg 31%
    04:00 +23°C° 0 mm 2 mps 756 mmHg 31%
    05:00 +25°C° 0 mm 2 mps 756 mmHg 30%
    06:00 +26°C° 0 mm 2 mps 756 mmHg 29%
    07:00 +28°C° 0 mm 2 mps 756 mmHg 28%
    08:00 +31°C° 0 mm 2 mps 756 mmHg 24%
    09:00 +33°C° 0 mm 1 mps 756 mmHg 20%
    10:00 +36°C° 0 mm 1 mps 756 mmHg 17%
    11:00 +38°C° 0 mm 2 mps 756 mmHg 16%
    12:00 +38°C° 0 mm 3 mps 756 mmHg 15%
    13:00 +39°C° 0 mm 3 mps 755 mmHg 15%
    14:00 +38°C° 0 mm 4 mps 755 mmHg 16%
    15:00 +38°C° 0 mm 4 mps 755 mmHg 17%
    16:00 +37°C° 0 mm 4 mps 755 mmHg 18%
    17:00 +34°C° 0 mm 3 mps 755 mmHg 24%
    18:00 +30°C° 0 mm 3 mps 755 mmHg 30%
    19:00 +27°C° 0 mm 2 mps 755 mmHg 36%
    20:00 +27°C° 0 mm 2 mps 755 mmHg 35%
    21:00 +26°C° 0 mm 1 mps 755 mmHg 34%
    22:00 +26°C° 0 mm 1 mps 756 mmHg 33%
    23:00 +26°C° 0 mm 1 mps 756 mmHg 33%
    Show more